• Processing (Info)

  • MPEC 2016-G52 : 2016 GF1

    The following Minor Planet Electronic Circular may be linked-to from your own Web pages, but must not otherwise be redistributed electronically.

    A form allowing access to any MPEC is at the bottom of this page.


    Read MPEC 2016-G51 Read MPEC 2016-G53


    M.P.E.C. 2016-G52                                Issued 2016 Apr. 3, 17:38 UT
    
         The Minor Planet Electronic Circulars contain information on unusual
             minor planets and routine data on comets.  They are published
        on behalf of Division F of the International Astronomical Union by the
              Minor Planet Center, Smithsonian Astrophysical Observatory,
                              Cambridge, MA 02138, U.S.A.
    
                 Prepared using the Tamkin Foundation Computer Network
    
                                  MPC@CFA.HARVARD.EDU
                URL https://www.minorplanetcenter.net/    ISSN 1523-6714
    
                                       2016 GF1
    
    Observations:
         K16G01F  C2016 04 02.29501 12 38 53.38 -09 52 53.2          20.2 VqEG052G96
         K16G01F  C2016 04 02.30066 12 38 57.03 -09 53 09.3          19.9 VqEG052G96
         K16G01F  C2016 04 02.30631 12 39 00.72 -09 53 26.0          19.9 VqEG052G96
         K16G01F  C2016 04 02.31196 12 39 04.39 -09 53 42.3          20.0 VqEG052G96
         K16G01F  C2016 04 02.41285 12 40 09.87 -09 58 27.0          20.1 VqEG052G96
         K16G01F  C2016 04 02.41571 12 40 11.74 -09 58 34.6          19.9 VqEG052G96
         K16G01F  C2016 04 02.41856 12 40 13.59 -09 58 43.5          18.9 VqEG052G96
         K16G01F  C2016 04 02.42142 12 40 15.47 -09 58 50.4          19.9 VqEG052G96
         K16G01F* C2016 04 02.42935 12 40 20.68 -09 59 10.8          20.0 VqEG052I52
         K16G01F  C2016 04 02.43011 12 40 21.17 -09 59 14.1          20.0 VqEG052I52
         K16G01F  C2016 04 03.24277 12 49 25.59 -10 34 52.6          20.1 VqEG052G96
         K16G01F  C2016 04 03.24713 12 49 28.02 -10 35 03.4          20.1 VqEG052G96
         K16G01F  C2016 04 03.25148 12 49 30.50 -10 35 14.6          20.4 VqEG052G96
         K16G01F  C2016 04 03.25584 12 49 32.94 -10 35 24.8          20.1 VqEG052G96
         K16G01F KC2016 04 03.25590612 49 29.42 -10 35 39.9          20.0 VuEG052H21
         K16G01F KC2016 04 03.25827612 49 30.77 -10 35 45.4          20.1 VuEG052H21
         K16G01F KC2016 04 03.26043012 49 31.98 -10 35 50.7          20.3 VuEG052H21
         K16G01F KC2016 04 03.26258512 49 33.19 -10 35 56.0          20.3 VuEG052H21
         K16G01F KC2016 04 03.26474012 49 34.41 -10 36 01.1          20.0 VuEG052H21
         K16G01F KC2016 04 03.26811712 49 36.30 -10 36 09.2          20.0 VuEG052H21
         K16G01F KC2016 04 03.30735312 50 01.02 -10 37 29.8          20.1 RSEG052448
         K16G01F  C2016 04 03.31067 12 50 03.48 -10 37 38.6          20.9 VqEG052I52
         K16G01F  C2016 04 03.31151 12 50 03.96 -10 37 40.7          20.9 VqEG052I52
         K16G01F  C2016 04 03.31384 12 50 05.28 -10 37 45.9          20.6 VqEG052I52
         K16G01F  C2016 04 03.31469 12 50 05.69 -10 37 47.7          20.4 VqEG052I52
         K16G01F KC2016 04 03.34246712 50 20.46 -10 38 54.1          20.6 RSEG052448
         K16G01F  C2016 04 03.35749 12 50 29.40 -10 39 26.9          19.7 RoEG052926
         K16G01F  C2016 04 03.36080 12 50 31.29 -10 39 34.1          19.6 RoEG052926
         K16G01F  C2016 04 03.36414 12 50 33.06 -10 39 42.6          19.8 RoEG052926
         K16G01F KC2016 04 03.37351312 50 37.69 -10 40 04.9          19.2 RSEG052448
         K16G01F KC2016 04 03.55841 12 52 30.92 -10 44 05.4          19.3 RtEG052474
         K16G01F KC2016 04 03.56019 12 52 31.91 -10 44 09.2          19.8 RtEG052474
         K16G01F KC2016 04 03.56197 12 52 32.85 -10 44 13.7          19.5 RtEG052474
         K16G01F KC2016 04 03.56552 12 52 34.78 -10 44 21.8          19.9 RtEG052474
    
    Observer details:
    448 Desert Moon Observatory.  Observer B. L. Stevens.  0.3-m
        Schmidt-Cassegrain + CCD.
    474 Mount John Observatory, Lake Tekapo.  Observers A. C. Gilmore,
        P. M. Kilmartin.  Measurer P. M. Kilmartin.  1.0-m f/7.7 reflector + CCD.
    926 Tenagra II Observatory.  Observers M. Schwartz, P. R. Holvorcem.  Measurer
        M. Schwartz.  0.81-m f/7 Ritchey-Chretien + CCD.
    G96 Mt. Lemmon Survey.  Observer R. A. Kowalski.  Measurers E. J. Christensen,
        D. C. Fuls, A. R. Gibbs, A. D. Grauer, J. A. Johnson, R. A. Kowalski,
        S. M. Larson, G. J. Leonard, R. G. Matheny, R. L. Seaman, F. C. Shelly.
        1.5-m reflector + CCD.
    H21 Astronomical Research Observatory, Westfield.  Observer R. Holmes.
        Measurers S. Foglia, L. Buzzi, T. Linder, R. Holmes.  0.61-m f/4.5
        astrograph + CCD, 1.3-m f/4.0 astrograph + CCD.
    I52 Steward Observatory, Mt. Lemmon Station.  Observer A. R. Gibbs.  Measurers
        E. J. Christensen, D. C. Fuls, A. R. Gibbs, A. D. Grauer, J. A. Johnson,
        R. A. Kowalski, S. M. Larson, G. J. Leonard, R. G. Matheny, R. L. Seaman,
        F. C. Shelly.  1.0-m reflector + CCD.
    
    Orbital elements:
    2016 GF1                                                 Earth MOID = 0.0032 AU
    Epoch 2016 Jan. 13.0 TT = JDT 2457400.5                 MPC
    M 342.66723              (2000.0)            P               Q
    n   0.35361904     Peri.  240.63594     -0.90989363     -0.41481787
    a   1.9805188      Node   274.85590     +0.38213782     -0.83394948
    e   0.5059873      Incl.    0.25531     +0.16144432     -0.36394286
    P   2.79           H   25.9           G   0.15           U   7
    Residuals in seconds of arc
    160402 G96  0.2+  0.2-    160403 G96  0.2+  0.4-    160403 I52  0.7-  0.3+
    160402 G96  0.2-  0.2+    160403 G96  0.0   0.2+    160403 448  0.2-  0.9-
    160402 G96  0.0   0.1-    160403 H21  0.1-  0.0     160403 926  0.1+  0.1-
    160402 G96  0.0   0.0     160403 H21  0.1+  0.2+    160403 926  1.0+  0.4+
    160402 G96  0.1-  0.2-    160403 H21  0.1+  0.1+    160403 926  0.1-  0.3-
    160402 G96  0.0   0.1+    160403 H21  0.0   0.0     160403 448  0.1+  0.2+
    160402 G96  0.2-  1.0-    160403 H21  0.1+  0.1+    160403 474  0.1-  0.1+
    160402 G96  0.1-  0.1-    160403 H21  0.1-  0.1+    160403 474  0.2+  0.3+
    160402 I52  0.2+  1.2+    160403 448  0.0   0.4+    160403 474  0.1-  0.1-
    160402 I52  0.1+  0.0     160403 I52  0.4-  0.2-    160403 474  0.1-  0.2-
    160403 G96  0.2+  0.0     160403 I52  0.2-  0.3-
    160403 G96  0.2-  0.0     160403 I52  0.2+  0.1+
    
    Ephemeris:
    2016 GF1                 a,e,i = 1.98, 0.51, 0                   q = 0.9784
    Date    TT    R. A. (2000) Decl.     Delta      r     Elong.  Phase     V
    2016 03 04    04 06 37.7 +18 34 31   0.09803 0.9787    79.6    94.7    24.2
    ...
    2016 03 19    06 20 30.8 +16 48 54   0.03877 1.0006    96.3    81.5    21.7
    ...
    2016 03 27    10 31 48.2 +00 09 44   0.03112 1.0254   151.8    27.4    19.6
    ...
    2016 04 02    12 35 17.1 -09 36 08   0.04980 1.0492   174.6     5.1    19.9
    2016 04 03    12 46 48.7 -10 22 59   0.05386 1.0535   174.9     4.9    20.1
    2016 04 04    12 56 44.0 -11 01 40   0.05808 1.0580   174.6     5.1    20.3
    ...
    2016 04 10    13 34 40.6 -13 12 38   0.08563 1.0869   172.9     6.6    21.2
    ...
    2016 04 18    13 57 41.9 -14 14 05   0.1266  1.1304   175.3     4.1    22.1
    ...
    2016 05 03    14 14 44.8 -14 44 02   0.2162  1.2232   173.5     5.3    23.4
    
    A. U. Tomatic                (C) Copyright 2016 MPC           M.P.E.C. 2016-G52
    

    Read MPEC 2016-G51 Read MPEC 2016-G53


    MPEC number:

    Enter an MPEC number in one of the following forms:

    • 1997-B01 (the full form)
    • J97B01 (the packed version of the full form)
    • B01 (the abbreviated form)